Regional Weather Roundup
Issued by NWS

Home | Current Version | Previous Version | Text Only | Print | Product List | Glossary Off
Versions: 1 2 3 4 5 6 7 8 9 10 11 12 13 14 15 16 17 18 19 20 21 22 23 24 25 26 27 28 29 30 31 32 33 34 35 36 37 38 39 40 41 42 43 44 45 46 47 48 49 50

000
ASUS43 KMPX 221701
RWRMN
WEATHER ROUNDUP FOR MINNESOTA
NATIONAL WEATHER SERVICE TWIN CITIES/CHANHASSEN MN
1200 PM CDT SUN APR 22 2018


NOTE: "FAIR" INDICATES FEW OR NO CLOUDS BELOW 12,000 FEET WITH NO
SIGNIFICANT WEATHER AND/OR OBSTRUCTIONS TO VISIBILITY. N/A MEANS
CURRENT SKY AND/OR WEATHER CONDITIONS ARE NOT AVAILABLE.

MNZ060>063-068>070-221800-
   Twin Cities Metro

CITY           SKY/WX    TMP DP  RH WIND       PRES   REMARKS
TWIN CITIES    FAIR      57  31  37 SE6       30.36F
ST PAUL        FAIR      58  32  37 S7        30.37F
BLAINE         MOSUNNY   59  30  33 S6        30.35F
LAKEVILLE      FAIR      55  37  50 E6        30.35F
EDEN PRAIRIE   FAIR      57  33  40 SE9       30.34F
SOUTH ST PAUL  FAIR      57  31  38 CALM      30.36F
LAKE ELMO      FAIR      55  34  44 S5        30.37F
$$
MNZ001>005-007-008-013>017-022>024-027-028-221800-
   Northwest Minnesota

CITY           SKY/WX    TMP DP  RH WIND       PRES   REMARKS
BEMIDJI        FAIR      57  30  35 SW12G18   30.26S
HALLOCK        FAIR      59  39  47 S20G26    30.15F
ROSEAU         FAIR      57  41  54 SW22G28   30.20R
WARROAD        FAIR      57  36  44 S18G28    30.20R
THIEF RVR FALL FAIR      54  39  57 S21       30.22F
CROOKSTON      FAIR      55  39  54 SW18G26   30.23F
FOSSTON        FAIR      55  34  44 S22       30.25F
DETROIT LAKES  FAIR      57  32  38 S14       30.27F
MOORHEAD       FAIR      54  39  58 S12       30.26S
PARK RAPIDS    FAIR      57  33  40 SW13G21   30.28F
MAHNOMEN       FAIR      58  34  40 SW18G24   30.25S
$$
MNZ006-009>011-018-025>026-221800-
   North Central Minnesota

CITY           SKY/WX    TMP DP  RH WIND       PRES   REMARKS
BAUDETTE       FAIR      57  29  34 SW18G29   30.20F
FLAG ISLAND    FAIR      39  30  70 S10       30.18S
INTL FALLS     FAIR      57  33  40 SW15G24   30.24F
WASKISH        PTSUNNY   54  34  47 W12       30.25S
BIG FORK       FAIR      55  34  44 S13G21    30.27F
LONGVILLE      FAIR      57  30  35 S7        30.30F
GRAND RAPIDS   FAIR      54  30  40 VRB7      30.32F
CRANE LAKE     FAIR      55  30  38 SW12G20   30.29F
ORR            FAIR      57  28  33 S9G18     30.25F
COOK           FAIR      55  30  38 S10G16    30.30F
WALKER         FAIR      57  31  37 SW13G18   30.28F
$$
MNZ012-019>021-037-221800-
   Northeast Minnesota

CITY           SKY/WX    TMP DP  RH WIND       PRES   REMARKS
DULUTH         FAIR      56  26  31 SW10      30.32F
ELY            FAIR      54  18  24 SW7       30.30F
HIBBING        FAIR      55  24  30 SW9       30.30F
EVELETH        FAIR      56  24  29 SW7G17    30.31F
DULUTH HARBOR  FAIR      41  28  60 NE5       30.36F
TWO HARBORS    FAIR      61  32  33 S9        30.32F
SILVER BAY     FAIR      54  25  32 SE8       30.33S
GRAND MARAIS     N/A     42  29  59 E5        30.37F
G MARAIS ARPRT FAIR      52  18  25 SE6       30.34S
$$
MNZ029>031-032-039>041-046>048-054>057-064-221800-
   West Central Minnesota

CITY           SKY/WX    TMP DP  RH WIND       PRES   REMARKS
FERGUS FALLS   FAIR      57  37  47 S13       30.25F
WHEATON        SUNNY     55  39  54 S9        30.30S
MORRIS         SUNNY     55  41  58 S10       30.29F
ALEXANDRIA     FAIR      59  33  37 S10G18    30.31F
ELBOW LAKE     FAIR      56  38  49 S13       30.29F
WADENA         FAIR      57  34  41 S9        30.28F
GLENWOOD       FAIR      57  34  41 S14       30.32S
APPLETON       SUNNY     55  36  47 S7        30.30S
BENSON         SUNNY     57  39  51 S10       30.33S
ORTONVILLE     SUNNY     55  37  50 SE7       30.29F
MADISON        SUNNY     54  45  71 S9        30.30F
WILLMAR        FAIR      55  39  54 SE10      30.35F
$$
MNZ033>034-036-042>043-049>051-058-059-221800-
   Central Minnesota

CITY           SKY/WX    TMP DP  RH WIND       PRES   REMARKS
ST CLOUD       FAIR      57  34  41 VRB7      30.34F
SAUK CENTRE    FAIR      56  34  43 S12       30.32F
PAYNESVILLE    FAIR      56  36  46 S13       30.33F
AITKIN         FAIR      54  30  40 S10       30.31F
PINE RIVER     FAIR      55  32  41 S12       30.32F
BRAINERD       FAIR      58  30  34 SW15      30.32F
STAPLES        FAIR      55  30  38 S8        30.30F
LONG PRAIRIE   FAIR      55  34  44 SE10G16   30.32S
LITTLE FALLS   FAIR      55  25  30 S8        30.33S
LITCHFIELD     FAIR      57  37  47 S5        30.34F
BUFFALO        FAIR      56  33  40 SE3       30.36S
MAPLE LAKE     FAIR      57  37  46 SE3       30.35F
HUTCHINSON     FAIR      55  39  56 SE7       30.36F
$$
MNZ037-044-045-052-053-221800-
   East Central Minnesota

CITY           SKY/WX    TMP DP  RH WIND       PRES   REMARKS
PRINCETON      FAIR      61  30  31 S5        30.35S
MORA           FAIR      54  32  43 S6        30.37S
CAMBRIDGE        N/A     57  37  47 S3        30.35F
RUSH CITY      FAIR      56  31  39 S5        30.36F
MOOSE LAKE     FAIR      55  32  41 SW6       30.32S
HINCKLEY       FAIR      55  34  44 S6        30.35F
CLOQUET        FAIR      55  21  26 SW12      30.33S
MCGREGOR       FAIR      55  30  38 SW10      30.33F
$$
MNZ071>073-080-081-089-090-097-098-221800-
   Southwest Minnesota

CITY           SKY/WX    TMP DP  RH WIND       PRES   REMARKS
MONTEVIDEO     SUNNY     55  39  54 SW13      30.31F
GRANITE FALLS  SUNNY     55  41  58 SE9       30.34F
CANBY          SUNNY     51  43  73 E10       30.31F
MARSHALL       SUNNY     51  39  63 SE6       30.32F
REDWOOD FALLS  SUNNY     53  41  63 SE10      30.33F
OLIVIA         SUNNY     55  39  54 SE7       30.33F
PIPESTONE      SUNNY    N/A N/A N/A SE6       30.30S
WINDOM         SUNNY     48  30  49 NE6       30.33S
WORTHINGTON    SUNNY     50  37  61 E8        30.32S
JACKSON        SUNNY     43  34  70 E6        30.33S
TRACY          SUNNY     50  40  67 S7        30.33S
SLAYTON        SUNNY     45  37  74 SE8       30.33S
$$
MNZ065>067-074>077-082>085-091>093-221800-
   South Central Minnesota

CITY           SKY/WX    TMP DP  RH WIND       PRES   REMARKS
MANKATO        FAIR      55  36  48 E7        30.34F
NEW ULM        SUNNY     52  36  54 CALM      30.34S
ST JAMES       SUNNY     46  37  71 E7        30.35S
FAIRMONT       CLOUDY    44  35  70 NE7       30.34S
GLENCOE        FAIR      56  37  48 SE5       30.34F
OWATONNA       FAIR      55  39  54 E8        30.34F
WASECA         FAIR      54  37  54 NE7       30.35F
ALBERT LEA     FAIR      50  23  34 E9        30.34S
$$
MNZ078>079-086>088-094>096-221800-
   Southeast Minnesota

CITY           SKY/WX    TMP DP  RH WIND       PRES   REMARKS
ROCHESTER      FAIR      53  36  52 NE12      30.35F
RED WING       FAIR      57  27  30 CALM      30.35F
STANTON        FAIR      58  36  43 E3        30.34F
DODGE CENTER   FAIR      54  37  54 E10       30.34F
WINONA         FAIR      59  32  36 SE7       30.34F
AUSTIN         FAIR      54  34  47 E10       30.34S
PRESTON        FAIR      53  26  35 E7        30.35S
$$
ABBREVIATIONS USED IN REMARKS
   TC - TEMPERATURES IN CELSIUS
  WCI - WIND CHILL INDEX
   HX - HEAT INDEX
  VSB - VISIBILITY
$$




USA.gov is the U.S. government's official web portal to all federal, state and local government web resources and services.